Location: Oberkirch
(48.5323°N, 8.0787°E)
Time: 22:07:25
(UTC+00:00)

Tiros 1 - Pass Details

Date: 20 February 2026
Orbit: 618 x 649 km, 48.4° (Epoch: 9 March)

Event Time Altitude Azimuth Distance (km) Brightness Sun altitude
Rises 09:04:33 0° 257° (WSW) 2,909 10.2 21.3°
Reaches altitude 10° 09:06:52 10° 256° (WSW) 1,998 9.5 21.5°
Maximum altitude 09:11:28 81° 170° (S) 634 7.6 22.0°
Drops below altitude 10° 09:16:02 10° 83° (E) 1,986 10.2 22.5°
Sets 09:18:20 0° 83° (E) 2,890 10.9 22.7°
